Location: Dackenheim
(49.5215°N, 8.1854°E)
Time: 21:01:18
(UTC+00:00)

Cosmos 1707 - Pass Details

Date: 19 May 2025
Orbit: 423 x 430 km, 82.5° (Epoch: 15 June)

Event Time Altitude Azimuth Distance (km) Brightness Sun altitude
Exits shadow 22:54:09 83° 90° (E) 443 2.2 -20.2°
Drops below altitude 10° 22:57:31 10° 11° (NNE) 1,550 6.2 -20.3°
Sets 22:59:34 0° 11° (N) 2,425 7.5 -20.3°
